Regional Weather Roundup
Issued by NWS Newport/Morehead, NC

Current Version | Previous Version | Graphics & Text | Print | Product List | Glossary Off
Versions: 1 2 3 4 5 6 7 8 9 10 11 12 13 14 15 16 17 18 19 20 21 22 23 24 25 26 27 28 29 30 31 32 33 34 35 36 37 38 39 40 41 42 43 44 45 46 47 48 49 50

000
ASUS42 KMHX 260425
RWRMHX
WEATHER ROUNDUP FOR EASTERN NORTH CAROLINA
NATIONAL WEATHER SERVICE NEWPORT/MOREHEAD CITY NC
1200 AM EDT TUE MAY 26 2015

NOTE: "FAIR" INDICATES FEW OR NO CLOUDS BELOW 12,000 FEET
WITH NO SIGNIFICANT WEATHER AND/OR OBSTRUCTIONS TO VISIBILITY

NCZ015>017-031-032-045>047-102-103-260500-
NORTH COAST

CITY           SKY/WX    TMP DP  RH WIND       PRES   REMARKS
EDENTON        CLEAR     69  63  80 S13       30.31F
ELIZABETH CITY CLEAR     69  62  78 S8        30.31S
KITTY HAWK     PTCLDY    71  63  73 S6        30.31S
MANTEO         PTCLDY    72  64  74 S13       30.32S

$$

NCZ045>047-081-094-103-104-260500-
CENTRAL COAST

CITY           SKY/WX    TMP DP  RH WIND       PRES   REMARKS
FRISCO         CLEAR     72  62  71 S13       30.33S
SWANQUARTER      N/A     73 N/A N/A S10G18    30.30S

$$

NCZ095-097-098-100-101-260500-
SOUTHERN COAST

CITY           SKY/WX    TMP DP  RH WIND       PRES   REMARKS
BEAUFORT       CLEAR     71  63  75 S6        30.32S
CEDAR ISLAND     N/A     72 N/A N/A SE6       30.36S
JACKSONVILLE   CLEAR     67  62  84 S3        30.30S
PINEY ISLAND   CLEAR    N/A N/A N/A S6        30.32S
WILMINGTON     CLEAR     66  63  90 CALM      30.30F


$$

NCZ011>013-027>030-043-044-078>080-089-090>093-098-260500-
COASTAL PLAIN

CITY           SKY/WX    TMP DP  RH WIND       PRES   REMARKS
AHOSKIE        CLEAR     64  59  83 S5        30.30S
CLINTON        CLEAR     67  63  87 CALM      30.30S
ELIZABETHTOWN  CLEAR     67  63  87 SE5       30.29S
GOLDSBORO      NOT AVBL
GREENVILLE     CLEAR     70  63  78 S8        30.31S
HAVELOCK       PTCLDY    64  60  87 SE5       30.33S
KENANSVILLE    CLEAR     62  59  91 CALM      30.31F
KINSTON        CLEAR     66  60  81 S3        30.31F
NEW BERN       CLEAR     64  59  83 S3        30.32F
RICHLANDS      CLEAR     61  55  82 CALM      30.31F
ROCKY MOUNT    CLEAR     69  61  75 S6        30.30S
WASHINGTON     CLEAR     68  62  79 S6        30.31S
WHITEVILLE     CLEAR     68  64  87 CALM      30.28F

$$

AMZ130-135-150-152-154-156-158-170-250-252-270-ANZ085-086-088-633-658-670-260500-
MARINE OBSERVATIONS

STATION/POSITION TIME  TEMP    WIND        PRES    WAVE   SWELL
                       AIR SEA DIR/SP/G            HT/PER HT/PER
                 (UTC) (F)     (DEG/KT/KT) (MB)    (FT/S) (FT/S)
CHESAPEAKE LIGHT 0400   67     190/ 19/ 19 1026.3
64 E VA BEACH    0350   66 64  190/  8/  8 1026.4    1/ 7   2/ 7
DUCK             0400   72 62  180/ 11/ 13 1025.5
2 E DUCK         0311      65                N/A     1/ 8
OREGON INLET     0400   73 77  180/ 12/ 15 1026.8
13E OREGON INLT  0300      68                N/A     1/ 8
HATTERAS CG      0400   74 76  170/  8/ 12 1026.5
DIAMOND BUOY     0350   74 76  170/ 14/ 16 1027.0    3/ 6   2/ 8
CAPE LOOKOUT     0400   74     150/ 10/ 11 1026.5
BEAUFORT LAB     0400   74 75  160/ 11/ 13 1025.8
27 SE WRIGHTSVLE 0400   72 76  160/ 10/ 12   N/A
5 SE WRIGHTSVLE  0308   75 77  180/ 10/ 14 1026.2
225 S CAPE HAT   0350   74 74  120/ 14/ 16 1026.8    4/ 6   2/ 7
41 SE CHARLESTON 0350   75 75   90/ 12/ 12 1024.3    4/ 6   3/ 6

$$


USA.gov is the U.S. government's official web portal to all federal, state and local government web resources and services.